Location: Newark
(41.0000°N, 28.9500°W)
Time: 06:41:21
(UTC+00:00)

N. Korean satellite - Pass Details

Date: 27 January 2020
Orbit: 456 x 505 km, 97.2° (Epoch: 27 February)

Event Time Altitude Azimuth Distance (km) Brightness Sun altitude
Rises 08:00:50 0° 6° (N) 2,547 10.2 -13.4°
Reaches altitude 10° 08:02:55 10° 2° (N) 1,671 9.2 -13.1°
Maximum altitude 08:06:26 53° 285° (WNW) 604 6.6 -12.4°
Drops below altitude 10° 08:09:58 10° 208° (SSW) 1,684 9.2 -11.8°
Sets 08:12:04 0° 203° (SSW) 2,569 10.2 -11.4°
